Stations météo

Publicité
Le Luc, France (7675): Température de l'air & dewpoint: 14.09.2018 06:00:00 - 20.09.2018 06:00:00 (CEST)Le Luc, France (7675): Température de l'air 5cm: 14.09.2018 06:00:00 - 20.09.2018 06:00:00 (CEST)Le Luc, France (7675): Vitesse du vent & gusts: 14.09.2018 06:00:00 - 20.09.2018 06:00:00 (CEST)Le Luc, France (7675): Direction du vent: 14.09.2018 06:00:00 - 20.09.2018 06:00:00 (CEST)Le Luc, France (7675): reduced air pressure: 14.09.2018 06:00:00 - 20.09.2018 06:00:00 (CEST)Le Luc, France (7675): visibility: 14.09.2018 06:00:00 - 20.09.2018 06:00:00 (CEST)Le Luc, France (7675): Ensoleillement: 14.09.2018 06:00:00 - 20.09.2018 06:00:00 (CEST)Le Luc, France (7675): Quantités de précipitations: 14.09.2018 06:00:00 - 20.09.2018 06:00:00 (CEST)
Date & Time tt [°C] td [°C] tt 5cm [°C] ff [km/h] ff [knt] fx [km/h] fx [knt] dd ppp [hPa] vv [km] sd [min] rr [mm]
20.09.2018 06:00:00 15,9 14,3 14,5 2 1 6 3 WNW 1019,0 16 0 0,0
20.09.2018 05:00:00 17,3 14,8 15,3 0 0 5 3 N 1018,9 20 0 0,0
20.09.2018 04:00:00 17,2 15,2 15,6 0 0 6 3 N 1019,1 20 0 0,0
20.09.2018 03:00:00 17,5 14,8 16,2 3 1 5 3 E 1019,3 20 0 0,0
20.09.2018 02:00:00 18,4 15,6 16,6 0 0 3 2 N 1019,5 20 0 0,0
20.09.2018 01:00:00 19,3 15,6 17,7 0 0 5 3 N 1019,5 26 0 0,0
20.09.2018 00:00:00 20,6 16,0 18,9 0 0 6 3 N 1019,8 30 0 0,0
19.09.2018 23:00:00 21,3 16,0 19,8 2 1 11 6 W 1019,6 33 0 0,0
19.09.2018 22:00:00 22,9 16,2 20,9 0 0 8 5 N 1019,3 36 0 0,0
19.09.2018 21:00:00 24,4 16,4 22,6 4 2 10 6 ENE 1019,2 35 0 0,0
19.09.2018 20:00:00 25,4 16,5 24,1 6 3 16 9 E 1018,6 25 0 0,0
19.09.2018 19:00:00 27,7 16,6 27,9 13 7 24 13 SE 1018,3 47 47 0,0
19.09.2018 18:00:00 29,0 16,2 31,3 18 10 32 17 ESE 1017,6 25 60 0,0
19.09.2018 17:00:00 30,5 16,5 30,5 14 8 29 16 SSE 1017,2 34 33 0,0
19.09.2018 16:00:00 30,5 16,5 32,6 13 7 25 13 SE 1017,4 25 49 0,0
19.09.2018 15:00:00 31,8 14,9 39,6 5 3 13 7 SSE 1017,8 25 60 0,0
19.09.2018 14:00:00 31,0 16,2 36,5 4 2 18 10 W 1018,4 25 60 0,0
19.09.2018 13:00:00 29,6 15,7 34,8 7 4 16 9 N 1019,1 25 60 0,0
19.09.2018 12:00:00 28,7 17,6 34,1 6 3 19 11 NNE 1019,7 25 60 0,0
19.09.2018 11:00:00 25,4 17,8 30,3 3 1 15 8 S 1020,2 31 60 0,0
19.09.2018 10:00:00 21,7 17,9 21,3 0 0 22 12 N 1020,4 20 51 0,0
19.09.2018 09:00:00 17,6 16,3 16,4 0 0 2 1 N 1020,2 16 6 0,0
19.09.2018 08:00:00 16,0 15,0 14,1 3 2 5 3 SSE 1019,9 6 0 0,2
19.09.2018 07:00:00 16,0 15,2 14,2 0 0 6 4 N 1019,6 7 0 0,0
19.09.2018 06:00:00 15,8 14,5 14,8 3 2 7 4 ESE 1019,3 13 0 0,0
19.09.2018 05:00:00 16,6 16,0 14,6 0 0 4 2 N 1018,6 8 0 0,0
19.09.2018 04:00:00 17,1 16,5 15,2 3 2 4 2 NW 1019,0 11 0 0,0
19.09.2018 03:00:00 17,3 15,8 16,0 2 1 6 3 SSE 1019,1 19 0 0,0
19.09.2018 02:00:00 18,4 17,1 16,4 2 1 6 3 WNW 1019,5 19 0 0,0
19.09.2018 01:00:00 18,9 16,9 17,2 0 0 6 4 N 1019,5 26 0 0,0
19.09.2018 00:00:00 20,2 18,1 18,1 0 0 8 4 N 1019,5 26 0 0,0
18.09.2018 23:00:00 20,4 17,6 18,9 0 0 5 3 N 1019,5 27 0 0,0
18.09.2018 22:00:00 21,6 18,4 19,5 3 2 18 10 ENE 1018,9 30 0 0,0
18.09.2018 21:00:00 23,2 19,4 22,2 4 2 11 6 E 1018,2 35 0 0,0
18.09.2018 20:00:00 24,0 19,1 23,4 9 5 13 7 ESE 1017,4 45 18 0,0
18.09.2018 19:00:00 25,3 18,7 25,7 10 6 22 12 ESE 1017,1 35 22 0,0
18.09.2018 18:00:00 26,2 17,8 27,6 15 8 25 14 ESE 1017,1 44 5 0,0
18.09.2018 17:00:00 27,3 16,9 29,6 18 10 29 15 SE 1017,3 35 50 0,0
18.09.2018 16:00:00 27,9 17,4 28,0 18 10 29 16 ESE 1017,9 40 32 0,0
18.09.2018 15:00:00 27,6 16,9 29,1 19 10 31 17 E 1018,4 35 26 0,0
18.09.2018 14:00:00 27,4 17,8 28,9 22 12 42 23 SE 1018,7 35 29 0,0
18.09.2018 13:00:00 28,3 16,9 28,9 19 11 39 21 SE 1018,6 35 56 0,0
18.09.2018 12:00:00 26,8 17,3 28,8 16 8 23 12 E 1018,9 35 48 0,0
18.09.2018 11:00:00 25,1 18,3 29,8 9 5 17 9 NE 1019,0 25 60 0,0
18.09.2018 10:00:00 22,0 17,1 24,9 0 0 14 8 N 1019,4 35 60 0,0
18.09.2018 09:00:00 18,0 16,7 16,1 2 1 5 3 WNW 1019,8 12 56 0,0
18.09.2018 08:00:00 15,3 14,8 14,2 0 0 4 2 N 1019,9 1,2 0 0,0
18.09.2018 07:00:00 15,6 14,8 14,7 0 0 2 1 N 1019,5 5 0 0,0
18.09.2018 06:00:00 15,1 14,3 13,9 0 0 4 2 N 1019,5 16 0 0,0
18.09.2018 05:00:00 15,5 14,5 13,2 2 1 4 2 WSW 1019,4 17 0 0,0
18.09.2018 04:00:00 15,3 14,2 13,5 0 0 3 1 N 1019,2 17 0 0,0
18.09.2018 03:00:00 16,4 14,9 14,2 0 0 4 2 N 1019,3 30 0 0,0
18.09.2018 02:00:00 16,4 14,9 14,7 0 0 7 4 N 1019,4 25 0 0,0
18.09.2018 01:00:00 17,8 16,0 16,0 0 0 6 4 N 1019,5 20 0 0,0
18.09.2018 00:00:00 18,6 16,7 16,9 0 0 3 2 N 1019,6 33 0 0,0
17.09.2018 23:00:00 20,1 17,9 18,0 0 0 16 8 N 1019,8 37 0 0,0
17.09.2018 22:00:00 21,2 18,8 18,4 5 3 12 6 NE 1019,7 39 0 0,0
17.09.2018 21:00:00 21,7 18,1 19,7 4 2 11 6 NE 1019,2 48 0 0,0
17.09.2018 20:00:00 23,3 18,4 22,6 10 5 20 11 ESE 1018,8 30 0 0,0
17.09.2018 19:00:00 25,3 17,2 25,7 13 7 23 12 E 1018,3 30 50 0,0
17.09.2018 18:00:00 26,9 15,9 30,1 17 9 32 17 SE 1018,3 30 60 0,0
17.09.2018 17:00:00 28,1 15,4 30,2 16 9 25 13 SE 1018,5 30 60 0,0
17.09.2018 16:00:00 28,2 15,5 33,3 12 6 26 14 E 1019,1 38 60 0,0
17.09.2018 15:00:00 27,7 15,7 31,2 14 8 35 19 SE 1019,9 45 57 0,0
17.09.2018 14:00:00 27,4 17,3 28,6 19 11 31 17 SE 1020,3 37 27 0,0
17.09.2018 13:00:00 27,3 17,2 28,1 18 10 28 15 ESE 1020,6 15 26 0,0
17.09.2018 12:00:00 26,7 17,2 29,9 5 3 23 12 SE 1021,0 15 57 0,0
17.09.2018 11:00:00 24,7 17,9 28,8 5 3 11 6 ENE 1021,5 15 60 0,0
17.09.2018 10:00:00 21,9 17,1 21,9 0 0 7 4 N 1021,5 15 51 0,0
17.09.2018 09:00:00 18,4 16,6 17,7 0 0 9 5 N 1021,6 19 49 0,0
17.09.2018 08:00:00 16,1 15,1 14,4 2 1 5 3 ESE 1021,5 19 23 0,0
17.09.2018 07:00:00 15,7 14,4 14,1 0 0 3 2 N 1021,0 10 0 0,0
17.09.2018 06:00:00 15,7 14,7 13,6 3 2 4 2 W 1020,7 18 0 0,0
17.09.2018 05:00:00 16,0 14,7 14,5 0 0 6 3 N 1021,0 18 0 0,0
17.09.2018 04:00:00 17,1 16,1 15,2 2 1 5 3 W 1021,1 18 0 0,0
17.09.2018 03:00:00 17,4 15,9 15,3 0 0 3 2 N 1021,3 20 0 0,0
17.09.2018 02:00:00 18,7 16,7 16,6 0 0 6 3 N 1021,6 20 0 0,0
17.09.2018 01:00:00 19,4 17,2 17,7 3 1 6 3 W 1021,5 31 0 0,0
17.09.2018 00:00:00 20,9 18,1 20,0 5 3 7 4 SSE 1021,6 33 0 0,0
16.09.2018 23:00:00 21,9 18,5 20,5 3 2 4 2 WNW 1021,8 36 0 0,0
16.09.2018 22:00:00 22,0 18,4 20,8 0 0 9 5 N 1021,6 36 0 0,0
16.09.2018 21:00:00 22,6 18,4 22,0 6 3 10 5 E 1021,3 36 0 0,0
16.09.2018 20:00:00 23,6 18,3 23,1 8 4 17 9 ESE 1021,1 45 0 0,0
16.09.2018 19:00:00 25,0 17,2 25,0 11 6 16 9 ESE 1020,6 50 0 0,0
16.09.2018 18:00:00 26,4 16,0 28,6 10 5 22 12 E 1020,4 45 49 0,0
16.09.2018 17:00:00 26,9 15,0 29,0 16 8 24 13 E 1020,4 43 25 0,0
16.09.2018 16:00:00 27,2 15,2 29,8 14 8 27 15 ESE 1020,6 44 34 0,0
16.09.2018 15:00:00 27,5 14,8 30,1 16 8 29 15 E 1020,6 50 33 0,0
16.09.2018 14:00:00 28,0 16,0 31,1 14 8 26 14 ESE 1020,8 39 57 0,0
16.09.2018 13:00:00 27,2 14,9 28,9 16 9 26 14 SE 1021,2 42 34 0,0
16.09.2018 12:00:00 25,9 15,9 27,8 15 8 25 13 ESE 1021,7 43 17 0,0
16.09.2018 11:00:00 24,2 18,2 25,4 8 5 16 8 NE 1022,1 32 36 0,0
16.09.2018 10:00:00 21,0 17,6 22,6 3 2 6 3 W 1022,2 20 9 0,0
16.09.2018 09:00:00 19,1 17,1 16,9 3 2 5 3 SSE 1021,7 20 25 0,0
16.09.2018 08:00:00 16,8 16,2 15,9 0 0 11 6 N 1021,5 12 0 0,0
16.09.2018 07:00:00 16,8 16,2 15,8 3 1 11 6 NNE 1021,0 12 0 0,0
16.09.2018 06:00:00 16,6 15,5 15,4 4 2 9 5 N 1020,5 12 0 0,0
16.09.2018 05:00:00 16,6 15,6 15,3 3 2 5 3 WNW 1020,6 16 0 0,0
16.09.2018 04:00:00 17,1 16,1 14,8 0 0 4 2 N 1020,5 18 0 0,0
16.09.2018 03:00:00 16,7 15,4 15,3 2 1 8 4 E 1021,2 16 0 0,0
16.09.2018 02:00:00 18,8 17,5 17,2 6 3 9 5 W 1021,6 18 0 0,0
16.09.2018 01:00:00 18,6 16,4 17,3 3 2 7 4 WNW 1021,2 20 0 0,0
16.09.2018 00:00:00 19,8 17,2 17,9 4 2 6 3 S 1020,9 27 0 0,0
15.09.2018 23:00:00 20,5 17,9 18,7 2 1 6 4 NW 1020,5 26 0 0,0
15.09.2018 22:00:00 21,2 17,6 19,8 2 1 11 6 WSW 1020,4 32 0 0,0
15.09.2018 21:00:00 22,5 18,5 20,3 3 2 6 3 E 1019,9 30 0 0,0
15.09.2018 20:00:00 24,3 18,9 22,9 4 2 13 7 ESE 1019,5 32 0 0,0
15.09.2018 19:00:00 25,7 18,6 26,1 10 6 19 10 SE 1019,2 43 17 0,0
15.09.2018 18:00:00 27,3 17,8 28,9 14 8 25 13 E 1018,7 35 43 0,0
15.09.2018 17:00:00 27,4 20,0 29,5 18 10 27 15 ESE 1018,3 28 14 0,0
15.09.2018 16:00:00 29,2 18,9 31,7 16 9 32 17 ESE 1017,8 30 37 0,0
15.09.2018 15:00:00 29,2 18,9 31,8 15 8 24 13 SE 1017,9 27 26 0,0
15.09.2018 14:00:00 29,1 17,9 34,2 7 4 18 10 SE 1018,0 32 47 0,0
15.09.2018 13:00:00 28,4 18,5 34,3 3 2 18 10 SE 1018,2 20 60 0,0
15.09.2018 12:00:00 27,6 18,9 33,4 3 1 9 5 E 1018,9 20 60 0,0
15.09.2018 11:00:00 25,6 16,4 25,5 0 0 8 4 N 1019,0 40 51 0,0
15.09.2018 10:00:00 20,7 15,0 19,7 0 0 7 4 N 1019,1 42 1 0,0
15.09.2018 09:00:00 17,3 14,4 16,2 0 0 6 3 N 1018,7 39 0 0,0
15.09.2018 08:00:00 15,8 13,1 14,2 0 0 7 4 N 1018,7 50 1 0,0
15.09.2018 07:00:00 15,4 13,1 14,2 2 1 6 3 W 1018,2 47 0 0,0
15.09.2018 06:00:00 14,6 13,0 13,2 0 0 6 3 N 1017,7 14 0 0,0
15.09.2018 05:00:00 15,2 12,9 13,6 0 0 8 5 N 1017,5 48 0 0,0
15.09.2018 04:00:00 15,4 13,2 13,3 0 0 7 4 N 1017,3 47 0 0,0
15.09.2018 03:00:00 15,7 13,2 14,0 0 0 6 4 N 1017,2 41 0 0,0
15.09.2018 02:00:00 16,1 13,2 14,8 3 1 5 3 E 1017,3 43 0 0,0
15.09.2018 01:00:00 17,8 13,5 15,8 3 1 7 4 WNW 1017,0 50 0 0,0
15.09.2018 00:00:00 19,5 15,4 17,4 4 2 7 4 WSW 1016,6 44 0 0,0
14.09.2018 23:00:00 21,3 14,7 18,4 2 1 11 6 WSW 1016,3 48 0 0,0
14.09.2018 22:00:00 22,3 18,3 19,9 0 0 9 5 N 1016,1 25 0 0,0
14.09.2018 21:00:00 23,7 19,6 21,8 5 3 11 6 WNW 1015,7 27 0 0,0
14.09.2018 20:00:00 24,8 20,1 23,5 8 5 23 12 NE 1015,1 30 0 0,0
14.09.2018 19:00:00 27,5 20,3 28,7 11 6 24 13 NNE 1014,4 34 56 0,0
14.09.2018 18:00:00 31,1 18,5 35,2 13 7 31 17 WNW 1013,8 20 60 0,0
14.09.2018 17:00:00 31,0 17,3 33,1 18 10 31 17 WSW 1013,4 33 60 0,0
14.09.2018 16:00:00 31,5 18,1 32,2 13 7 25 13 WSW 1013,6 26 39 0,0
14.09.2018 15:00:00 30,9 19,6 34,3 7 4 27 15 SSE 1013,9 25 40 0,0
14.09.2018 14:00:00 31,1 15,1 36,6 9 5 20 11 W 1014,4 20 54 0,0
14.09.2018 13:00:00 29,3 17,2 35,8 7 4 15 8 WSW 1015,1 20 60 0,0
14.09.2018 12:00:00 27,9 18,0 34,6 0 0 7 4 N 1015,7 20 60 0,0
14.09.2018 11:00:00 25,8 18,7 30,3 0 0 6 4 N 1016,0 20 60 0,0
14.09.2018 10:00:00 23,0 18,3 25,5 0 0 12 7 N 1016,0 20 60 0,0
14.09.2018 09:00:00 20,1 17,9 18,8 0 0 8 4 N 1015,9 19 60 0,0
14.09.2018 08:00:00 16,5 15,7 14,7 2 1 4 2 NNW 1015,9 7 27 0,0
14.09.2018 07:00:00 16,5 15,5 14,7 2 1 4 2 W 1015,3 20 0 0,0
14.09.2018 06:00:00 16,7 15,7 15,2 0 0 3 2 N 1015,0 16 0 0,0

tt = Température de l'air
td = dewpoint
tt 5cm = Température de l'air 5cm
ff = Vitesse du vent
fx = gusts
dd = Direction du vent
ppp = reduced air pressure
vv = visibility
sd = Ensoleillement
rr = Quantités de précipitations

stations d'obs. à proximité